FDX1700 KIND-KEWR

Flight info

Callsign FDX1700
Flight time N/A
Altitude 31000
Route MAREO5 BDOCK KLYNE Q29 DORET J584 SLT FQM3
Aircraft B77L/H-SDE2E3FGHIJ5LORVWXY/LB1D1

Departure

Time 2026-05-04 23:03
Airport Indianapolis International Airport (KIND)

Arrival

Time N/A
Airport Newark Liberty International Airport (KEWR)
Time Latitude Longitude Altitude Speed Heading
2026-05-04 21:22 39.71404 -86.28104 794 ft 0 kts 135°
2026-05-04 22:44 39.71410 -86.28111 794 ft 2 kts 135°
2026-05-04 22:45 39.71418 -86.28122 794 ft 0 kts 135°
2026-05-04 22:45 39.71432 -86.28153 793 ft 2 kts 96°
2026-05-04 22:45 39.71432 -86.28172 794 ft 2 kts 76°
2026-05-04 22:46 39.71426 -86.28189 794 ft 2 kts 56°
2026-05-04 22:46 39.71421 -86.28198 794 ft 0 kts 44°
2026-05-04 22:46 39.71418 -86.28202 794 ft 0 kts 44°
2026-05-04 22:50 39.71418 -86.28201 794 ft 0 kts 44°
2026-05-04 22:51 39.71424 -86.28194 794 ft 2 kts 46°
2026-05-04 22:51 39.71434 -86.28180 794 ft 1 kts 46°
2026-05-04 22:51 39.71445 -86.28167 793 ft 2 kts 45°
2026-05-04 22:51 39.71456 -86.28152 793 ft 1 kts 45°
2026-05-04 22:52 39.71467 -86.28139 793 ft 2 kts 45°
2026-05-04 22:52 39.71476 -86.28126 793 ft 0 kts 45°
2026-05-04 22:52 39.71478 -86.28124 792 ft 0 kts 45°
2026-05-04 22:52 39.71485 -86.28114 792 ft 2 kts 45°
2026-05-04 22:53 39.71510 -86.28083 792 ft 8 kts 45°
2026-05-04 22:53 39.71574 -86.28015 792 ft 15 kts 37°
2026-05-04 22:53 39.71659 -86.27978 792 ft 10 kts 347°
2026-05-04 22:53 39.71710 -86.27978 793 ft 4 kts 20°
2026-05-04 22:54 39.71730 -86.27962 793 ft 2 kts 35°
2026-05-04 22:54 39.71737 -86.27955 793 ft 0 kts 39°
2026-05-04 22:54 39.71760 -86.27927 794 ft 10 kts 44°
2026-05-04 22:54 39.71835 -86.27831 792 ft 14 kts 45°
2026-05-04 22:55 39.71885 -86.27766 793 ft 5 kts 46°
2026-05-04 22:55 39.71897 -86.27750 793 ft 0 kts 44°
2026-05-04 22:55 39.71926 -86.27714 793 ft 9 kts 44°
2026-05-04 22:56 39.71987 -86.27638 792 ft 13 kts 44°
2026-05-04 22:56 39.72053 -86.27552 793 ft 12 kts 55°
2026-05-04 22:56 39.72040 -86.27467 793 ft 6 kts 163°
2026-05-04 22:56 39.71995 -86.27508 792 ft 9 kts 223°
2026-05-04 22:57 39.71951 -86.27562 792 ft 7 kts 224°
2026-05-04 22:57 39.71914 -86.27608 792 ft 7 kts 224°
2026-05-04 22:57 39.71880 -86.27651 792 ft 7 kts 225°
2026-05-04 22:57 39.71857 -86.27680 792 ft 0 kts 225°
2026-05-04 22:58 39.71857 -86.27681 792 ft 0 kts 225°
2026-05-04 22:58 39.71846 -86.27696 792 ft 6 kts 225°
2026-05-04 22:58 39.71803 -86.27752 792 ft 9 kts 225°
2026-05-04 22:59 39.71754 -86.27815 792 ft 10 kts 224°
2026-05-04 22:59 39.71708 -86.27873 793 ft 9 kts 224°
2026-05-04 22:59 39.71678 -86.27950 792 ft 9 kts 289°
2026-05-04 22:59 39.71738 -86.27949 793 ft 8 kts 31°
2026-05-04 23:00 39.71775 -86.27910 793 ft 5 kts 44°
2026-05-04 23:00 39.71809 -86.27867 793 ft 9 kts 45°
2026-05-04 23:00 39.71877 -86.27848 793 ft 9 kts 331°
2026-05-04 23:00 39.71893 -86.27863 793 ft 0 kts 321°
2026-05-04 23:01 39.71903 -86.27872 793 ft 5 kts 319°
2026-05-04 23:01 39.71941 -86.27921 794 ft 8 kts 312°
2026-05-04 23:01 39.71956 -86.27966 794 ft 3 kts 267°
2026-05-04 23:01 39.71946 -86.27993 795 ft 4 kts 230°
2026-05-04 23:02 39.71917 -86.28030 795 ft 9 kts 225°
2026-05-04 23:02 39.71728 -86.28271 795 ft 70 kts 224°
2026-05-04 23:02 39.71227 -86.28912 798 ft 133 kts 224°
2026-05-04 23:02 39.70434 -86.29900 939 ft 176 kts 223°
2026-05-04 23:03 39.69563 -86.31010 1801 ft 179 kts 224°
2026-05-04 23:03 39.68740 -86.32104 2744 ft 169 kts 225°
2026-05-04 23:03 39.67893 -86.33251 3193 ft 185 kts 226°
2026-05-04 23:03 39.66872 -86.34274 3659 ft 198 kts 201°
2026-05-04 23:04 39.65422 -86.34367 4088 ft 225 kts 173°
2026-05-04 23:04 39.63945 -86.33422 4593 ft 255 kts 146°
2026-05-04 23:04 39.62937 -86.31390 5068 ft 289 kts 110°
2026-05-04 23:04 39.62931 -86.28734 5632 ft 311 kts 76°
2026-05-04 23:05 39.63582 -86.26112 6515 ft 311 kts 73°
2026-05-04 23:05 39.64277 -86.23434 7320 ft 313 kts 72°
2026-05-04 23:05 39.64990 -86.20790 8038 ft 318 kts 71°
2026-05-04 23:05 39.65710 -86.18081 8738 ft 322 kts 71°
2026-05-04 23:06 39.66425 -86.15329 9447 ft 325 kts 71°
2026-05-04 23:06 39.67134 -86.12539 10127 ft 329 kts 71°
2026-05-04 23:06 39.67849 -86.09656 10604 ft 343 kts 71°
2026-05-04 23:06 39.68592 -86.06629 10994 ft 360 kts 71°
2026-05-04 23:07 39.69361 -86.03493 11415 ft 376 kts 71°
2026-05-04 23:07 39.70174 -86.00169 11855 ft 392 kts 71°
2026-05-04 23:07 39.71011 -85.96743 12322 ft 407 kts 71°
2026-05-04 23:07 39.71880 -85.93178 12898 ft 419 kts 71°
2026-05-04 23:08 39.72751 -85.89599 13703 ft 424 kts 71°
2026-05-04 23:08 39.73634 -85.85962 14646 ft 427 kts 71°
2026-05-04 23:08 39.74528 -85.82279 15557 ft 430 kts 71°
2026-05-04 23:08 39.75422 -85.78586 16443 ft 434 kts 71°
2026-05-04 23:09 39.76328 -85.74843 17304 ft 438 kts 71°
2026-05-04 23:09 39.77241 -85.71059 18114 ft 442 kts 71°
2026-05-04 23:09 39.78166 -85.67220 18945 ft 447 kts 71°
2026-05-04 23:09 39.79083 -85.63409 19707 ft 452 kts 71°
2026-05-04 23:10 39.80024 -85.59494 20448 ft 457 kts 71°
2026-05-04 23:10 39.80969 -85.55553 21240 ft 460 kts 71°
2026-05-04 23:10 39.81928 -85.51545 21997 ft 464 kts 71°
2026-05-04 23:10 39.82884 -85.47545 22679 ft 469 kts 71°
2026-05-04 23:11 39.83852 -85.43488 23389 ft 473 kts 71°
2026-05-04 23:11 39.84817 -85.39433 24100 ft 476 kts 71°
2026-05-04 23:11 39.85796 -85.35315 24730 ft 481 kts 71°
2026-05-04 23:11 39.86780 -85.31164 25263 ft 487 kts 71°
2026-05-04 23:12 39.87759 -85.26921 25811 ft 492 kts 74°
2026-05-04 23:12 39.88359 -85.22559 26399 ft 498 kts 83°
2026-05-04 23:12 39.88654 -85.18037 26984 ft 502 kts 85°
2026-05-04 23:12 39.88905 -85.13535 27596 ft 506 kts 85°
2026-05-04 23:13 39.89154 -85.08983 28193 ft 510 kts 85°
2026-05-04 23:13 39.89405 -85.04366 28764 ft 514 kts 85°
2026-05-04 23:13 39.89655 -84.99719 29404 ft 517 kts 85°
2026-05-04 23:13 39.89904 -84.95061 30187 ft 516 kts 85°
2026-05-04 23:14 39.90152 -84.90388 30696 ft 516 kts 85°
2026-05-04 23:14 39.90398 -84.85705 30764 ft 514 kts 85°
2026-05-04 23:14 39.90877 -84.76508 30766 ft 508 kts 85°
2026-05-04 23:15 39.91347 -84.67348 30776 ft 509 kts 84°
2026-05-04 23:15 39.91809 -84.58183 30772 ft 509 kts 85°
2026-05-04 23:16 39.92265 -84.49001 30784 ft 509 kts 85°
2026-05-04 23:16 39.92713 -84.39844 30779 ft 508 kts 85°
2026-05-04 23:17 39.93478 -84.30763 30788 ft 506 kts 75°
2026-05-04 23:17 39.96028 -84.22273 30777 ft 501 kts 57°
2026-05-04 23:18 40.00254 -84.15211 30785 ft 492 kts 41°
2026-05-04 23:18 40.05276 -84.09235 30790 ft 491 kts 39°
2026-05-04 23:19 40.10356 -84.03217 30788 ft 490 kts 39°
2026-05-04 23:19 40.15363 -83.97250 30779 ft 492 kts 40°
2026-05-04 23:20 40.20401 -83.91221 30777 ft 492 kts 40°
2026-05-04 23:20 40.25456 -83.85152 30763 ft 493 kts 40°
2026-05-04 23:21 40.30500 -83.79079 30760 ft 494 kts 40°
2026-05-04 23:21 40.35539 -83.72997 30754 ft 494 kts 40°
2026-05-04 23:22 40.40566 -83.66915 30764 ft 492 kts 40°
2026-05-04 23:22 40.45611 -83.60799 30785 ft 493 kts 40°
2026-05-04 23:23 40.50621 -83.54710 30761 ft 493 kts 40°
2026-05-04 23:23 40.55662 -83.48573 30756 ft 494 kts 40°
2026-05-04 23:24 40.60659 -83.42474 30751 ft 492 kts 40°
2026-05-04 23:24 40.65696 -83.36313 30743 ft 491 kts 40°
2026-05-04 23:25 40.70535 -83.29985 30740 ft 494 kts 49°
2026-05-04 23:25 40.74757 -83.22898 30744 ft 495 kts 50°
2026-05-04 23:26 40.78986 -83.15700 30748 ft 496 kts 50°
2026-05-04 23:26 40.83207 -83.08501 30739 ft 496 kts 50°
2026-05-04 23:27 40.87432 -83.01276 30741 ft 495 kts 50°
2026-05-04 23:27 40.91435 -82.93852 30743 ft 499 kts 59°
2026-05-04 23:28 40.93835 -82.85274 30736 ft 502 kts 77°
2026-05-04 23:28 40.95138 -82.76170 30748 ft 502 kts 78°
2026-05-04 23:29 40.96393 -82.67112 30738 ft 500 kts 78°
2026-05-04 23:29 40.97648 -82.58010 30753 ft 502 kts 78°
2026-05-04 23:30 40.98885 -82.48968 30751 ft 502 kts 78°
2026-05-04 23:30 41.00124 -82.39867 30750 ft 504 kts 78°
2026-05-04 23:31 41.01355 -82.30768 30749 ft 503 kts 79°
2026-05-04 23:31 41.02582 -82.21639 30756 ft 503 kts 79°
2026-05-04 23:32 41.03794 -82.12570 30756 ft 503 kts 79°
2026-05-04 23:32 41.04999 -82.03487 30764 ft 502 kts 79°
2026-05-04 23:33 41.06204 -81.94353 30753 ft 502 kts 79°
2026-05-04 23:33 41.07391 -81.85300 30757 ft 501 kts 79°
2026-05-04 23:34 41.08572 -81.76233 30752 ft 502 kts 79°
2026-05-04 23:34 41.09750 -81.67133 30762 ft 503 kts 79°
2026-05-04 23:35 41.10925 -81.57993 30769 ft 502 kts 79°
2026-05-04 23:35 41.12088 -81.48885 30771 ft 502 kts 79°
2026-05-04 23:36 41.13250 -81.39728 30766 ft 503 kts 79°
2026-05-04 23:36 41.14383 -81.30745 30767 ft 503 kts 79°
2026-05-04 23:37 41.15529 -81.21599 30765 ft 504 kts 79°
2026-05-04 23:37 41.16668 -81.12439 30761 ft 503 kts 79°
2026-05-04 23:38 41.17797 -81.03307 30763 ft 503 kts 79°
2026-05-04 23:38 41.18919 -80.94164 30764 ft 501 kts 79°
2026-05-04 23:39 41.20031 -80.85043 30770 ft 503 kts 79°
2026-05-04 23:39 41.21138 -80.75901 30778 ft 500 kts 79°
2026-05-04 23:40 41.22230 -80.66822 30782 ft 501 kts 79°
2026-05-04 23:40 41.23316 -80.57731 30789 ft 501 kts 79°
2026-05-04 23:41 41.24405 -80.48549 30784 ft 503 kts 79°
2026-05-04 23:41 41.25483 -80.39397 30792 ft 500 kts 79°
2026-05-04 23:42 41.26549 -80.30277 30783 ft 504 kts 80°
2026-05-04 23:42 41.27609 -80.21152 30788 ft 501 kts 80°
2026-05-04 23:43 41.28669 -80.11959 30790 ft 501 kts 81°
2026-05-04 23:43 41.29714 -80.02831 30793 ft 503 kts 81°
2026-05-04 23:44 41.30754 -79.93678 30787 ft 503 kts 81°
2026-05-04 23:44 41.31788 -79.84512 30799 ft 501 kts 80°
2026-05-04 23:45 41.32815 -79.75338 30801 ft 502 kts 80°
2026-05-04 23:45 41.33833 -79.66177 30795 ft 501 kts 80°
2026-05-04 23:46 41.34844 -79.57011 30790 ft 504 kts 80°
2026-05-04 23:46 41.35854 -79.47782 30786 ft 503 kts 80°
2026-05-04 23:47 41.36856 -79.38567 30790 ft 504 kts 80°
2026-05-04 23:47 41.37853 -79.29323 30788 ft 504 kts 81°
2026-05-04 23:48 41.38838 -79.20108 30779 ft 508 kts 81°
2026-05-04 23:48 41.39828 -79.10785 30783 ft 507 kts 81°
2026-05-04 23:49 41.40807 -79.01489 30789 ft 507 kts 80°
2026-05-04 23:49 41.41775 -78.92226 30805 ft 508 kts 80°
2026-05-04 23:50 41.42735 -78.82962 30803 ft 507 kts 80°
2026-05-04 23:50 41.43691 -78.73661 30805 ft 505 kts 81°
2026-05-04 23:51 41.44639 -78.64365 30810 ft 508 kts 80°
2026-05-04 23:51 41.45579 -78.55070 30810 ft 507 kts 80°
2026-05-04 23:52 41.46515 -78.45737 30815 ft 508 kts 80°
2026-05-04 23:52 41.47442 -78.36421 30817 ft 507 kts 80°
2026-05-04 23:53 41.48362 -78.27090 30810 ft 509 kts 81°
2026-05-04 23:53 41.49266 -78.17854 30815 ft 507 kts 81°
2026-05-04 23:54 41.50172 -78.08508 30814 ft 508 kts 81°
2026-05-04 23:54 41.50901 -77.99226 30817 ft 508 kts 89°
2026-05-04 23:55 41.50126 -77.89897 30831 ft 509 kts 99°
2026-05-04 23:56 41.48240 -77.75925 30823 ft 508 kts 99°
2026-05-04 23:56 41.46949 -77.66680 30826 ft 510 kts 99°
2026-05-04 23:57 41.45643 -77.57476 30835 ft 507 kts 99°
2026-05-04 23:57 41.44311 -77.48189 30835 ft 508 kts 99°
2026-05-04 23:58 41.42984 -77.39016 30826 ft 508 kts 99°
2026-05-04 23:58 41.41632 -77.29740 30816 ft 506 kts 100°
2026-05-04 23:59 41.40289 -77.20586 30817 ft 503 kts 100°
2026-05-04 23:59 41.38946 -77.11489 30816 ft 504 kts 100°
2026-05-05 00:00 41.37590 -77.02358 30789 ft 500 kts 99°
2026-05-05 00:00 41.37144 -76.99371 30486 ft 497 kts 100°
2026-05-05 00:00 41.36250 -76.93390 29713 ft 492 kts 100°
2026-05-05 00:00 41.35583 -76.88952 29258 ft 486 kts 100°
2026-05-05 00:01 41.34920 -76.84542 28785 ft 481 kts 100°
2026-05-05 00:01 41.34268 -76.80222 28305 ft 476 kts 100°
2026-05-05 00:01 41.33431 -76.76012 27829 ft 472 kts 107°
2026-05-05 00:01 41.32352 -76.71864 27345 ft 468 kts 109°
2026-05-05 00:02 41.31267 -76.67786 26860 ft 470 kts 109°
2026-05-05 00:02 41.30174 -76.63685 26370 ft 481 kts 109°
2026-05-05 00:02 41.29053 -76.59495 25843 ft 479 kts 109°
2026-05-05 00:02 41.27947 -76.55366 25333 ft 475 kts 109°
2026-05-05 00:03 41.26846 -76.51263 24820 ft 471 kts 109°
2026-05-05 00:03 41.25760 -76.47224 24302 ft 467 kts 109°
2026-05-05 00:03 41.24668 -76.43172 23792 ft 463 kts 109°
2026-05-05 00:03 41.23585 -76.39156 23285 ft 459 kts 109°
2026-05-05 00:04 41.22527 -76.35240 22783 ft 455 kts 109°
2026-05-05 00:04 41.21455 -76.31278 22267 ft 451 kts 110°
2026-05-05 00:04 41.20399 -76.27383 21763 ft 448 kts 110°
2026-05-05 00:04 41.19350 -76.23521 21258 ft 444 kts 110°
2026-05-05 00:05 41.18293 -76.19635 20754 ft 441 kts 111°
2026-05-05 00:05 41.17264 -76.15855 20261 ft 437 kts 110°
2026-05-05 00:05 41.16244 -76.12116 19768 ft 434 kts 111°
2026-05-05 00:05 41.15218 -76.08361 19237 ft 431 kts 111°
2026-05-05 00:06 41.14204 -76.04656 18750 ft 428 kts 111°
2026-05-05 00:06 41.13199 -76.00989 18307 ft 425 kts 111°
2026-05-05 00:06 41.12190 -75.97315 17866 ft 426 kts 111°
2026-05-05 00:06 41.11173 -75.93618 17390 ft 425 kts 111°
2026-05-05 00:07 41.10177 -75.89999 16944 ft 421 kts 111°
2026-05-05 00:07 41.09205 -75.86476 16515 ft 416 kts 111°
2026-05-05 00:07 41.08179 -75.82762 16166 ft 412 kts 111°
2026-05-05 00:07 41.07195 -75.79205 15756 ft 414 kts 111°
2026-05-05 00:08 41.06206 -75.75634 15241 ft 412 kts 111°
2026-05-05 00:08 41.05231 -75.72117 14839 ft 408 kts 111°
2026-05-05 00:08 41.04260 -75.68620 14394 ft 405 kts 111°
2026-05-05 00:08 41.03285 -75.65111 13931 ft 402 kts 111°
2026-05-05 00:09 41.02333 -75.61695 13507 ft 399 kts 111°
2026-05-05 00:09 41.01374 -75.58258 13048 ft 397 kts 111°
2026-05-05 00:09 41.00423 -75.54849 12679 ft 391 kts 111°
2026-05-05 00:09 40.99497 -75.51533 12466 ft 383 kts 111°
2026-05-05 00:10 40.98574 -75.48233 12197 ft 376 kts 111°
2026-05-05 00:10 40.97685 -75.45056 11906 ft 370 kts 111°
2026-05-05 00:10 40.96797 -75.41890 11610 ft 364 kts 111°
2026-05-05 00:10 40.95916 -75.38751 11329 ft 358 kts 111°
2026-05-05 00:11 40.95061 -75.35711 11064 ft 352 kts 111°
2026-05-05 00:11 40.94221 -75.32724 10784 ft 346 kts 112°
2026-05-05 00:11 40.93385 -75.29758 10554 ft 341 kts 112°
2026-05-05 00:11 40.92558 -75.26826 10283 ft 336 kts 111°
2026-05-05 00:12 40.91756 -75.23988 10050 ft 330 kts 111°
2026-05-05 00:12 40.90953 -75.21148 9735 ft 327 kts 111°